Satellite-Ground Cal/Val Region Overpasses Predictions

Prediction of Satellite NPP Overpassing Cal/Val Region: PacNW

Region Location: (Latitude: 10.00, Longitude: 139.50) to (Latitude: 22.70, Longitude: 165.60).

Table of predicted overpasses for the next 14.0 days since TLE Epoch: 6/26/2022
Interval Starting Time Starting Location Ending Time Ending Location
1 06/26/2022 03:23:43 ( 10.05, 148.85) 06/26/2022 03:27:18 ( 22.67, 145.84)
2 06/26/2022 15:55:36 ( 22.70, 146.09) 06/26/2022 15:59:12 ( 10.02, 143.08)
3 06/27/2022 03:04:41 ( 10.01, 153.61) 06/27/2022 03:08:17 ( 22.69, 150.59)
4 06/27/2022 15:36:35 ( 22.68, 150.84) 06/27/2022 15:40:11 ( 10.00, 147.83)
5 06/28/2022 02:45:41 ( 10.03, 158.36) 06/28/2022 02:49:16 ( 22.65, 155.36)
6 06/28/2022 15:17:35 ( 22.67, 155.59) 06/28/2022 15:21:10 ( 10.05, 152.59)
7 06/29/2022 02:26:41 ( 10.05, 163.11) 06/29/2022 02:30:16 ( 22.67, 160.10)
8 06/29/2022 14:58:34 ( 22.65, 160.34) 06/29/2022 15:02:09 ( 10.03, 157.34)
9 06/30/2022 02:10:24 ( 19.69, 165.59) 06/30/2022 02:11:15 ( 22.69, 164.85)
10 06/30/2022 03:49:09 ( 10.01, 142.50) 06/30/2022 03:52:43 ( 22.57, 139.51)
11 06/30/2022 14:39:33 ( 22.69, 165.10) 06/30/2022 14:43:09 ( 10.01, 162.09)
12 06/30/2022 16:21:03 ( 22.69, 139.73) 06/30/2022 16:21:18 ( 21.81, 139.51)
13 07/01/2022 03:30:09 ( 10.02, 147.25) 07/01/2022 03:33:44 ( 22.65, 144.24)
14 07/01/2022 16:02:02 ( 22.67, 144.48) 07/01/2022 16:05:37 ( 10.05, 141.48)
15 07/02/2022 03:11:08 ( 10.04, 151.99) 07/02/2022 03:14:43 ( 22.67, 148.99)
16 07/02/2022 15:43:02 ( 22.65, 149.23) 07/02/2022 15:46:37 ( 10.03, 146.22)
17 07/03/2022 02:52:07 ( 10.00, 156.76) 07/03/2022 02:55:43 ( 22.69, 153.74)
18 07/03/2022 15:24:00 ( 22.69, 153.99) 07/03/2022 15:27:36 ( 10.01, 150.97)
19 07/04/2022 02:33:06 ( 10.02, 161.51) 07/04/2022 02:36:41 ( 22.65, 158.50)
20 07/04/2022 15:05:00 ( 22.67, 158.74) 07/04/2022 15:08:35 ( 10.05, 155.74)
21 07/05/2022 02:14:55 ( 12.93, 165.59) 07/05/2022 02:17:41 ( 22.67, 163.25)
22 07/05/2022 03:55:36 ( 10.05, 140.88) 07/05/2022 03:57:17 ( 15.98, 139.50)
23 07/05/2022 14:45:59 ( 22.65, 163.49) 07/05/2022 14:49:34 ( 10.03, 160.49)
24 07/06/2022 03:36:34 ( 10.01, 145.64) 07/06/2022 03:40:10 ( 22.69, 142.62)
25 07/06/2022 14:30:07 ( 11.59, 165.60) 07/06/2022 14:30:34 ( 10.01, 165.23)
26 07/06/2022 16:08:28 ( 22.68, 142.88) 07/06/2022 16:12:04 ( 10.01, 139.86)
27 07/07/2022 03:17:34 ( 10.03, 150.39) 07/07/2022 03:21:09 ( 22.65, 147.39)
28 07/07/2022 15:49:28 ( 22.66, 147.62) 07/07/2022 15:53:03 ( 10.04, 144.62)
29 07/08/2022 02:58:33 ( 10.05, 155.14) 07/08/2022 03:02:08 ( 22.68, 152.14)
30 07/08/2022 15:30:26 ( 22.70, 152.39) 07/08/2022 15:34:02 ( 10.02, 149.37)
31 07/09/2022 02:39:32 ( 10.02, 159.90) 07/09/2022 02:43:07 ( 22.64, 156.90)
